[[{"header":{"parameterUnit":"m.s-1","parameterCategory":2,"la1":30.2991,"la2":30.254,"lo1":-89.0895,"lo2":-89.0444,"dy":0.0017,"dx":0.0017,"nx":28,"ny":28,"refTime":"2023-08-29T09:00:00:Z","depth":"0","parameterNumber":2,"parameterNumberName":"U-component_of_CURRENTS"},"data":[0,0,0,0,0,0,0,0,0,0,0,0,0,0,0,0,0,0,0,0,0,0,0,0,0,0,0,0,0,0,0,0,0,0,0,0,0,0,0,0,0,0,0,0,0,0,0,0,0,0,0,0,0,0,0,0,0,0,-0.2706,-0.2707,0,-0.2811,-0.2813,-0.2814,-0.2774,-0.2771,-0.2769,-0.2766,-0.2831,-0.2835,-0.2839,0,0,0,0,0,0,0,0,0,0,0,0,0,-0.2558,-0.2561,-0.2706,-0.2707,-0.2708,-0.2811,-0.2813,-0.2814,-0.2774,-0.2771,-0.2768,-0.2765,-0.2829,-0.2834,-0.2839,0,0,0,0,0,0,0,0,0,0,0,0,0,-0.2641,-0.2562,-0.2706,-0.2699,-0.2699,-0.2811,-0.2813,-0.2815,-0.2775,-0.2771,-0.2767,-0.2764,-0.2828,-0.2834,-0.284,-0.2956,0,0,-0.2859,-0.2862,0,0,0,0,0,0,0,0,-0.2636,-0.2646,-0.2699,-0.27,-0.27,-0.2774,-0.2784,-0.2859,-0.2776,-0.2748,-0.2766,-0.2762,-0.281,-0.2817,-0.2849,-0.2959,-0.2962,-0.2859,-0.2863,-0.2866,-0.2868,0,0,0,0,0,0,0,-0.263,-0.2642,-0.2749,-0.27,-0.2701,-0.2721,-0.2728,-0.2799,-0.28,-0.275,-0.2747,-0.2757,-0.2809,-0.2843,-0.285,-0.2963,-0.2859,-0.2865,-0.2869,-0.2871,-0.313,-0.3133,0,0,0,0,0,0,-0.2614,-0.2637,-0.2746,-0.2752,-0.2656,-0.2727,-0.2734,-0.2756,-0.28,-0.2803,-0.2761,-0.2755,-0.2834,-0.2843,-0.2852,-0.2929,-0.2866,-0.2872,-0.2875,-0.3127,-0.313,-0.3134,0,0,0,0,0,0,-0.2611,-0.2623,-0.2742,-0.2694,-0.271,-0.2732,-0.2757,-0.276,-0.2778,-0.2808,-0.2809,-0.2773,-0.2832,-0.2843,-0.2938,-0.2933,-0.2874,-0.288,-0.3123,-0.3128,-0.3132,-0.3125,0,0,0,0,0,0,-0.2606,-0.2622,-0.2634,-0.2694,-0.2712,-0.2815,-0.2761,-0.2765,-0.279,-0.2784,-0.2821,-0.2823,-0.2829,-0.2929,-0.2944,-0.2941,-0.2885,-0.3119,-0.3125,-0.3131,-0.3121,-0.3129,-0.3135,0,0,0,0,0,-0.2601,-0.263,-0.2634,-0.2647,-0.2728,-0.2817,-0.283,-0.2832,-0.2794,-0.2829,-0.2861,-0.2821,-0.2974,-0.2939,-0.2955,-0.2953,-0.3116,-0.3123,-0.313,-0.3118,-0.3127,-0.3135,0,0,0,0,0,0,-0.2569,-0.2631,-0.2636,-0.2681,-0.2747,-0.2809,-0.2831,-0.2842,-0.2897,-0.2876,-0.2891,-0.2901,-0.2978,-0.2995,-0.2954,-0.3051,-0.3028,-0.3039,-0.3013,-0.3022,-0.3029,-0.2946,-0.289,0,0,0,0,0,-0.2573,-0.2607,-0.2679,-0.2716,-0.2744,-0.2791,-0.2823,-0.2835,-0.2889,-0.2905,-0.2947,-0.2983,-0.3031,-0.3047,-0.3111,-0.3181,-0.314,-0.3187,-0.3194,-0.3199,-0.3149,-0.3101,-0.3095,-0.3157,-0.3157,-0.3157,0,0,-0.2567,-0.2607,-0.2624,-0.2711,-0.275,-0.2801,-0.28,-0.2854,-0.2883,-0.291,-0.2975,-0.303,-0.3066,-0.3137,-0.3168,-0.3138,-0.3178,-0.3208,-0.3212,-0.3157,-0.3107,-0.3099,-0.3093,-0.3162,-0.3161,-0.316,0,0,-0.2576,-0.2614,-0.2644,-0.27,-0.2768,-0.2809,-0.2825,-0.291,-0.2928,-0.3031,-0.3034,-0.3084,-0.3196,-0.3192,-0.3204,-0.3297,-0.3234,-0.3327,-0.3268,-0.3224,-0.3216,-0.3207,-0.3195,-0.3185,-0.3306,-0.3306,-0.3306,0,-0.2564,-0.2611,-0.2671,-0.2715,-0.2746,-0.2807,-0.2845,-0.2896,-0.3004,-0.3015,-0.3047,-0.3153,-0.3201,-0.3204,-0.3236,-0.3298,-0.3275,-0.3223,-0.3223,-0.3214,-0.3205,-0.3194,-0.3183,-0.3307,-0.3307,-0.3307,-0.3307,0,-0.2595,-0.2632,-0.2656,-0.2722,-0.2776,-0.2825,-0.2895,-0.2949,-0.2989,-0.3028,-0.3085,-0.3165,-0.3197,-0.3236,-0.3266,-0.3233,-0.3241,-0.3248,-0.3175,-0.3196,-0.3187,-0.3176,-0.3307,-0.3307,-0.3307,-0.3307,0,0,-0.2557,-0.2657,-0.266,-0.2685,-0.2777,-0.2825,-0.2871,-0.293,-0.2936,-0.3029,-0.3035,-0.3118,-0.3133,-0.3147,-0.3184,-0.3144,-0.3111,-0.3163,-0.3161,-0.3105,-0.3026,-0.2992,-0.2977,-0.3106,-0.3103,-0.3101,-0.3058,0,-0.2556,-0.2622,-0.2674,-0.2727,-0.2765,-0.2823,-0.2867,-0.2918,-0.2974,-0.3018,-0.3029,-0.3081,-0.3103,-0.313,-0.3088,-0.3131,-0.3074,-0.3123,-0.3051,-0.3049,-0.2976,-0.2958,-0.2848,-0.2794,-0.3046,-0.3044,-0.3043,0,-0.2557,-0.2601,-0.2649,-0.2721,-0.2741,-0.2779,-0.2827,-0.2878,-0.2923,-0.2965,-0.2962,-0.3007,-0.2989,-0.3016,-0.2969,-0.3,-0.2988,-0.2994,-0.2993,-0.2932,-0.299,-0.2811,-0.2764,-0.2734,-0.3025,-0.3027,-0.3028,0,-0.2491,-0.2576,-0.2607,-0.2634,-0.2731,-0.2742,-0.2787,-0.2844,-0.288,-0.2914,-0.2946,-0.2926,-0.2949,-0.2898,-0.2933,-0.2945,-0.2881,-0.2906,-0.2842,-0.2843,-0.2714,-0.2706,-0.2572,-0.2807,-0.2807,-0.2807,-0.2808,0,-0.2464,-0.2484,-0.2576,-0.2591,-0.2619,-0.2698,-0.2724,-0.2767,-0.2826,-0.2852,-0.2899,-0.2914,-0.2915,-0.2907,-0.2898,-0.2839,-0.2843,-0.2795,-0.2803,-0.2722,-0.2715,-0.2656,-0.2685,-0.2806,-0.2806,-0.2807,-0.2807,0,-0.2381,-0.2448,-0.2482,-0.2566,-0.2589,-0.2601,-0.2688,-0.2711,-0.278,-0.2812,-0.2823,-0.2895,-0.2884,-0.2883,-0.2846,-0.2807,-0.2707,-0.2729,-0.2653,-0.265,-0.2545,-0.258,-0.2445,-0.2375,-0.2627,-0.2625,-0.2624,0,-0.2345,-0.2354,-0.2434,-0.2451,-0.2483,-0.2526,-0.2558,-0.2657,-0.2689,-0.2794,-0.2799,-0.2833,-0.2832,-0.2785,-0.2717,-0.2647,-0.2644,-0.2511,-0.2486,-0.2479,-0.2525,-0.2558,-0.2512,-0.2347,-0.2344,-0.2341,-0.2339,0,-0.2251,-0.2278,-0.2305,-0.2343,-0.2376,-0.2414,-0.2469,-0.2499,-0.261,-0.2656,-0.2711,-0.2726,-0.2709,-0.2603,-0.2534,-0.248,-0.2442,-0.245,-0.2434,-0.226,-0.229,-0.2248,-0.2482,-0.2313,-0.2316,-0.2318,-0.2319,-0.232,-0.2158,-0.2154,-0.2189,-0.2208,-0.2248,-0.2264,-0.2245,-0.2331,-0.2366,-0.2399,-0.253,-0.2519,-0.2502,-0.2387,-0.2328,-0.2187,-0.2256,-0.2118,-0.2157,-0.2189,-0.2106,-0.2298,-0.215,-0.2151,-0.2153,-0.2154,-0.2155,0,-0.2024,-0.2035,-0.2054,-0.2065,-0.2041,-0.2111,-0.2148,-0.2108,-0.2095,-0.2197,-0.2219,-0.2249,-0.2148,-0.2134,-0.2019,-0.1921,-0.1869,-0.1884,-0.1883,-0.1844,-0.1981,-0.1951,-0.1761,-0.1761,-0.1761,-0.1761,-0.1761,-0.1761,-0.1953,-0.1914,-0.1924,-0.1833,-0.1841,-0.1756,-0.1738,-0.1719,-0.1754,-0.1761,-0.1818,-0.1921,-0.1939,-0.2053,-0.1905,-0.1803,-0.175,-0.1705,-0.1737,-0.1833,-0.1858,-0.1882,-0.1856,-0.1649,-0.1649,-0.1515,-0.1515,-0.1514]},{"header":{"parameterUnit":"m.s-1","parameterCategory":2,"la1":30.2991,"la2":30.254,"lo1":-89.0895,"lo2":-89.0444,"dy":0.0017,"dx":0.0017,"nx":28,"ny":28,"refTime":"2023-08-29T09:00:00:Z","depth":"0","parameterNumber":3,"parameterNumberName":"V-component_of_CURRENTS"},"data":[0,0,0,0,0,0,0,0,0,0,0,0,0,0,0,0,0,0,0,0,0,0,0,0,0,0,0,0,0,0,0,0,0,0,0,0,0,0,0,0,0,0,0,0,0,0,0,0,0,0,0,0,0,0,0,0,0,0,-0.0202,-0.0201,0,-0.0113,-0.0112,-0.0111,-0.0045,-0.0045,-0.0044,-0.0044,0.0113,0.0117,0.0121,0,0,0,0,0,0,0,0,0,0,0,0,0,-0.0265,-0.0264,-0.0202,-0.0201,-0.02,-0.0114,-0.0112,-0.0111,-0.0045,-0.0045,-0.0044,-0.0044,0.0112,0.0117,0.0121,0,0,0,0,0,0,0,0,0,0,0,0,0,-0.0211,-0.0264,-0.0202,-0.0159,-0.0154,-0.0114,-0.0112,-0.011,-0.0045,-0.0045,-0.0044,-0.0044,0.0111,0.0116,0.0122,0.0147,0,0,0.014,0.0142,0,0,0,0,0,0,0,0,-0.0214,-0.0209,-0.0166,-0.0162,-0.0156,-0.0092,-0.0077,-0.0022,-0.0045,-0.0084,-0.0044,-0.0043,0.0049,0.006,0.0078,0.0154,0.0161,0.014,0.0144,0.0146,0.0148,0,0,0,0,0,0,0,-0.0218,-0.0212,-0.0164,-0.0165,-0.0159,-0.0127,-0.0119,-0.0066,-0.0018,-0.0081,-0.0076,-0.007,0.0053,0.0072,0.0082,0.0163,0.014,0.0145,0.0149,0.0151,0.0298,0.0299,0,0,0,0,0,0,-0.0237,-0.0216,-0.0167,-0.0162,-0.0187,-0.0127,-0.0118,-0.0111,-0.002,-0.0007,-0.0071,-0.0068,0.0062,0.0075,0.0088,0.0125,0.0146,0.0152,0.0155,0.0298,0.0298,0.0299,0,0,0,0,0,0,-0.0239,-0.0234,-0.0171,-0.0189,-0.0179,-0.0127,-0.012,-0.011,-0.0093,-0.0014,0.0001,-0.0066,0.0063,0.008,0.0141,0.0131,0.0154,0.0159,0.0297,0.0298,0.0299,0.0197,0,0,0,0,0,0,-0.0241,-0.0235,-0.024,-0.019,-0.0179,-0.0161,-0.012,-0.0109,-0.0092,-0.0086,-0.0005,0.0011,0.0065,0.0132,0.0147,0.014,0.0164,0.0297,0.0298,0.0298,0.0199,0.0194,0.0189,0,0,0,0,0,-0.0243,-0.0261,-0.0241,-0.0235,-0.0186,-0.0162,-0.0154,-0.0113,-0.0092,-0.0094,-0.0026,0.0008,0.0148,0.0137,0.0154,0.0148,0.0296,0.0297,0.0298,0.0202,0.0195,0.0189,0,0,0,0,0,0,-0.0296,-0.0255,-0.0232,-0.0236,-0.0206,-0.0152,-0.0153,-0.0122,-0.0071,-0.0063,0.0016,0.0036,0.009,0.0136,0.0122,0.0196,0.0227,0.0231,0.0147,0.0142,0.0136,0.0112,0.0169,0,0,0,0,0,-0.031,-0.0309,-0.0263,-0.0268,-0.0257,-0.0205,-0.0191,-0.0163,-0.0112,-0.009,-0.0029,0.0041,0.0108,0.0136,0.0201,0.0235,0.0274,0.0245,0.0239,0.0234,0.0228,0.0267,0.0264,0.0302,0.0302,0.0302,0,0,-0.0331,-0.031,-0.0308,-0.0279,-0.0251,-0.0246,-0.0195,-0.0184,-0.0172,-0.008,-0.0044,0.0028,0.0117,0.0163,0.0189,0.0197,0.0247,0.0236,0.023,0.0227,0.0268,0.0264,0.026,0.0303,0.0303,0.0303,0,0,-0.0383,-0.0356,-0.0373,-0.0353,-0.0322,-0.0287,-0.0288,-0.0236,-0.0206,-0.016,-0.0085,-0.0024,0.0069,0.0126,0.017,0.0174,0.0224,0.0196,0.0139,0.0176,0.0172,0.017,0.0216,0.0218,0.0183,0.0183,0.0183,0,-0.0412,-0.0422,-0.0377,-0.0388,-0.0377,-0.0311,-0.0325,-0.0286,-0.0219,-0.0193,-0.0162,-0.0019,0.005,0.0112,0.0119,0.0158,0.0192,0.0149,0.0165,0.0163,0.0162,0.0211,0.0215,0.0178,0.0179,0.0179,0.018,0,-0.0469,-0.0478,-0.0489,-0.0475,-0.0457,-0.046,-0.04,-0.0375,-0.0325,-0.0275,-0.0202,-0.0102,-0.0021,0.0012,0.0071,0.0101,0.0132,0.0157,0.017,0.0151,0.0205,0.0211,0.0171,0.0173,0.0174,0.0176,0,0,-0.0528,-0.0531,-0.0533,-0.0544,-0.0502,-0.0496,-0.0473,-0.043,-0.0413,-0.0336,-0.0305,-0.0189,-0.0134,-0.008,-0.0003,0.0031,0.006,0.0081,0.0085,0.0107,0.0147,0.0218,0.0232,0.0079,0.0079,0.008,0.0187,0,-0.0586,-0.0635,-0.0609,-0.0642,-0.0659,-0.0593,-0.0576,-0.0525,-0.046,-0.0412,-0.0308,-0.0242,-0.0169,-0.013,-0.0085,0.0038,0.007,0.0029,0.018,0.0185,0.0233,0.0239,0.0283,0.0387,0.0193,0.0194,0.0195,0,-0.0646,-0.0669,-0.0718,-0.0725,-0.0724,-0.0727,-0.0683,-0.066,-0.0569,-0.0517,-0.044,-0.0348,-0.0256,-0.0204,-0.0042,-0.0072,0.0022,0.0105,0.0112,0.0216,0.0267,0.0377,0.0405,0.0566,0.0204,0.0204,0.0203,0,-0.0708,-0.0743,-0.0786,-0.0787,-0.0779,-0.0784,-0.0769,-0.0695,-0.0674,-0.0585,-0.0553,-0.043,-0.036,-0.0235,-0.0042,-0.0048,0.0134,0.0147,0.0295,0.0302,0.039,0.0404,0.0575,0.0233,0.0233,0.0233,0.0232,0,-0.0776,-0.081,-0.0824,-0.085,-0.0894,-0.0854,-0.087,-0.0832,-0.0771,-0.0747,-0.0618,-0.0559,-0.0367,-0.0226,-0.0071,0.0147,0.0113,0.0292,0.0334,0.0359,0.0368,0.0555,0.0621,0.0237,0.0236,0.0235,0.0234,0,-0.0837,-0.0847,-0.0903,-0.0921,-0.0932,-0.0959,-0.0957,-0.0957,-0.0888,-0.0852,-0.0828,-0.0657,-0.0456,-0.0248,-0.002,0.0119,0.0426,0.0388,0.0415,0.0458,0.074,0.0798,0.1017,0.1114,0.0562,0.0564,0.0566,0,-0.0875,-0.091,-0.0966,-0.1006,-0.1022,-0.1053,-0.107,-0.1025,-0.1016,-0.0898,-0.0883,-0.0687,-0.052,-0.0144,0.0139,0.0426,0.0541,0.0616,0.0612,0.0772,0.0868,0.0903,0.0969,0.0692,0.0695,0.0697,0.0699,0,-0.094,-0.0957,-0.1004,-0.1089,-0.1133,-0.1173,-0.1191,-0.1203,-0.1127,-0.1067,-0.0936,-0.0792,-0.0405,-0.0032,0.0344,0.0511,0.0751,0.0673,0.0832,0.0983,0.104,0.1147,0.0609,0.072,0.0718,0.0717,0.0716,0.0715,-0.0979,-0.1033,-0.1094,-0.1167,-0.122,-0.1267,-0.1287,-0.1272,-0.124,-0.112,-0.0974,-0.0715,-0.0175,0.0384,0.0588,0.1009,0.0949,0.1112,0.1169,0.119,0.129,0.0805,0.0967,0.0967,0.0966,0.0966,0.0965,0,-0.1023,-0.1082,-0.1165,-0.1248,-0.1303,-0.1313,-0.1341,-0.1321,-0.1263,-0.111,-0.0935,-0.0346,0.0189,0.067,0.1276,0.1489,0.1529,0.158,0.1636,0.168,0.1252,0.1265,0.1508,0.1508,0.1508,0.1508,0.1507,0.1507,-0.1049,-0.1135,-0.1181,-0.1285,-0.1336,-0.1371,-0.1376,-0.1324,-0.1209,-0.0912,-0.0596,-0.0328,0.0372,0.1362,0.1902,0.1935,0.2112,0.2092,0.2185,0.1885,0.1845,0.1807,0.1836,0.2194,0.2195,0.2592,0.2596,0.2599]}],[{"header":{"parameterUnit":"m.s-1","parameterCategory":2,"la1":30.2991,"la2":30.254,"lo1":-89.0895,"lo2":-89.0444,"dy":0.0017,"dx":0.0017,"nx":28,"ny":28,"refTime":"2023-08-29T09:00:00:Z","depth":"2","parameterNumber":2,"parameterNumberName":"U-component_of_CURRENTS"},"data":[0,0,0,0,0,0,0,0,0,0,0,0,0,0,0,0,0,0,0,0,0,0,0,0,0,0,0,0,0,0,0,0,0,0,0,0,0,0,0,0,0,0,0,0,0,0,0,0,0,0,0,0,0,0,0,0,0,0,-0.2456,-0.2457,0,-0.2521,-0.2522,-0.2523,-0.249,-0.2488,-0.2487,-0.2485,-0.251,-0.2512,-0.2514,0,0,0,0,0,0,0,0,0,0,0,0,0,-0.2327,-0.2329,-0.2456,-0.2457,-0.2458,-0.2521,-0.2522,-0.2523,-0.249,-0.2488,-0.2486,-0.2485,-0.251,-0.2512,-0.2514,0,0,0,0,0,0,0,0,0,0,0,0,0,-0.2384,-0.2329,-0.2456,-0.2451,-0.2452,-0.2521,-0.2522,-0.2523,-0.249,-0.2488,-0.2486,-0.2484,-0.2509,-0.2512,-0.2515,-0.2579,0,0,-0.2524,-0.2526,0,0,0,0,0,0,0,0,-0.2381,-0.2389,-0.2451,-0.2452,-0.2452,-0.2497,-0.2486,-0.254,-0.2491,-0.2473,-0.2485,-0.2483,-0.2505,-0.2509,-0.2523,-0.258,-0.2581,-0.2525,-0.2526,-0.2528,-0.2529,0,0,0,0,0,0,0,-0.2377,-0.2386,-0.248,-0.2452,-0.2453,-0.2454,-0.2459,-0.2496,-0.2499,-0.2475,-0.2473,-0.2485,-0.2505,-0.252,-0.2523,-0.2581,-0.2524,-0.2527,-0.2529,-0.253,-0.2714,-0.2716,0,0,0,0,0,0,-0.2376,-0.2382,-0.2478,-0.2482,-0.2413,-0.2458,-0.2464,-0.2483,-0.2499,-0.25,-0.2487,-0.2483,-0.2516,-0.252,-0.2524,-0.2577,-0.2528,-0.2531,-0.2532,-0.2711,-0.2714,-0.2717,0,0,0,0,0,0,-0.2373,-0.2384,-0.2475,-0.2434,-0.2446,-0.2463,-0.2485,-0.2486,-0.2496,-0.2509,-0.2508,-0.2495,-0.2514,-0.252,-0.256,-0.2578,-0.2532,-0.2535,-0.2707,-0.2712,-0.2716,-0.2697,0,0,0,0,0,0,-0.2369,-0.2383,-0.2393,-0.2435,-0.2449,-0.2521,-0.2487,-0.2489,-0.2508,-0.2504,-0.2517,-0.2517,-0.2513,-0.2556,-0.2563,-0.2581,-0.2537,-0.2703,-0.2709,-0.2714,-0.2694,-0.2701,-0.2706,0,0,0,0,0,-0.2364,-0.2389,-0.2394,-0.2405,-0.2464,-0.2523,-0.2531,-0.2532,-0.2511,-0.2529,-0.2535,-0.2516,-0.2597,-0.256,-0.2569,-0.2588,-0.27,-0.2707,-0.2714,-0.2691,-0.2699,-0.2706,0,0,0,0,0,0,-0.2335,-0.239,-0.2395,-0.2434,-0.2478,-0.2518,-0.2534,-0.254,-0.2562,-0.2551,-0.2549,-0.2552,-0.2598,-0.2614,-0.2573,-0.2667,-0.265,-0.2659,-0.263,-0.2638,-0.2644,-0.2599,-0.254,0,0,0,0,0,-0.2338,-0.2368,-0.2424,-0.2453,-0.2477,-0.2508,-0.2529,-0.2539,-0.2566,-0.2571,-0.2582,-0.2606,-0.264,-0.265,-0.2688,-0.2735,-0.2711,-0.2761,-0.2767,-0.2772,-0.2748,-0.272,-0.2719,-0.274,-0.274,-0.274,0,0,-0.2333,-0.2368,-0.2383,-0.2449,-0.2477,-0.2516,-0.2514,-0.2556,-0.2576,-0.2574,-0.2601,-0.2631,-0.2662,-0.2709,-0.2732,-0.2715,-0.2765,-0.278,-0.2783,-0.2756,-0.2727,-0.2724,-0.2721,-0.2744,-0.2744,-0.2743,0,0,-0.2339,-0.2373,-0.24,-0.2442,-0.2498,-0.2525,-0.254,-0.2592,-0.26,-0.2648,-0.265,-0.2676,-0.2742,-0.2748,-0.2763,-0.2833,-0.2803,-0.2874,-0.2851,-0.2825,-0.2821,-0.2817,-0.2807,-0.2802,-0.2867,-0.2867,-0.2867,0,-0.2327,-0.237,-0.2417,-0.2456,-0.2483,-0.2528,-0.256,-0.2592,-0.2646,-0.2652,-0.2655,-0.2725,-0.2748,-0.2775,-0.28,-0.2836,-0.2827,-0.2807,-0.2824,-0.2819,-0.2815,-0.2806,-0.28,-0.2867,-0.2867,-0.2867,-0.2867,0,-0.2354,-0.2389,-0.2411,-0.2469,-0.2509,-0.255,-0.2603,-0.2635,-0.2653,-0.2673,-0.2713,-0.2744,-0.2771,-0.2804,-0.2818,-0.2824,-0.2831,-0.2833,-0.2782,-0.281,-0.2802,-0.2796,-0.2866,-0.2866,-0.2866,-0.2866,0,0,-0.2317,-0.241,-0.2413,-0.2439,-0.2517,-0.2554,-0.2595,-0.2641,-0.2655,-0.2696,-0.2704,-0.2756,-0.2761,-0.278,-0.2807,-0.2786,-0.2762,-0.2797,-0.2795,-0.2746,-0.2716,-0.2666,-0.2655,-0.276,-0.2759,-0.2758,-0.2729,0,-0.2315,-0.2377,-0.2426,-0.2475,-0.251,-0.2564,-0.26,-0.2645,-0.2679,-0.2707,-0.2718,-0.2751,-0.2758,-0.2776,-0.2754,-0.2777,-0.2744,-0.277,-0.2733,-0.2731,-0.2647,-0.2645,-0.2453,-0.2406,-0.2723,-0.2722,-0.2721,0,-0.2315,-0.2356,-0.2403,-0.2476,-0.2496,-0.253,-0.2583,-0.2623,-0.267,-0.2696,-0.2706,-0.2733,-0.2734,-0.2732,-0.2708,-0.2728,-0.271,-0.2707,-0.2705,-0.2648,-0.2668,-0.243,-0.2383,-0.2711,-0.2712,-0.2713,-0.2713,0,-0.2253,-0.2336,-0.2367,-0.2394,-0.2486,-0.2505,-0.2546,-0.2605,-0.2637,-0.2679,-0.2704,-0.2708,-0.272,-0.2688,-0.2692,-0.2699,-0.2657,-0.2666,-0.2592,-0.259,-0.2411,-0.2395,-0.2605,-0.2605,-0.2606,-0.2606,-0.2606,0,-0.2228,-0.2251,-0.234,-0.2357,-0.2388,-0.2465,-0.2497,-0.2542,-0.2606,-0.2633,-0.2683,-0.2699,-0.2706,-0.27,-0.2681,-0.262,-0.264,-0.2568,-0.2564,-0.2408,-0.2393,-0.2645,-0.265,-0.2605,-0.2605,-0.2605,-0.2605,0,-0.2154,-0.2217,-0.2254,-0.2338,-0.236,-0.2378,-0.2465,-0.2492,-0.2565,-0.26,-0.2613,-0.2687,-0.2678,-0.2679,-0.2647,-0.2604,-0.2557,-0.2525,-0.2354,-0.2329,-0.2512,-0.2517,-0.2428,-0.2426,-0.2424,-0.2422,-0.2421,0,-0.2122,-0.2133,-0.2212,-0.223,-0.2264,-0.231,-0.2342,-0.2442,-0.2475,-0.2581,-0.2586,-0.2624,-0.2616,-0.2571,-0.2498,-0.2428,-0.2503,-0.2221,-0.2182,-0.248,-0.2486,-0.2495,-0.2503,-0.1955,-0.195,-0.1946,-0.1943,0,-0.204,-0.2069,-0.2096,-0.2133,-0.2168,-0.2206,-0.2261,-0.2289,-0.2398,-0.244,-0.2485,-0.2494,-0.2475,-0.2322,-0.2254,-0.2191,-0.2219,-0.2134,-0.2457,-0.2041,-0.2034,-0.2042,-0.2064,-0.1905,-0.1909,-0.1912,-0.1914,-0.1915,-0.196,-0.196,-0.1993,-0.2013,-0.2055,-0.2068,-0.2048,-0.2124,-0.2151,-0.217,-0.2289,-0.2237,-0.2237,-0.2031,-0.1929,-0.1846,-0.1997,-0.1901,-0.1913,-0.193,-0.1891,-0.1882,-0.1719,-0.1721,-0.1723,-0.1725,-0.1727,0,-0.1843,-0.1854,-0.1872,-0.1884,-0.1866,-0.1931,-0.1959,-0.1914,-0.1886,-0.1947,-0.195,-0.1785,-0.1689,-0.1694,-0.1503,-0.1471,-0.1448,-0.1413,-0.1376,-0.1414,-0.1448,-0.1384,-0.1077,-0.1075,-0.1073,-0.1071,0,0,-0.1781,-0.1747,-0.1753,-0.1672,-0.1681,-0.1601,-0.1579,-0.1541,-0.1543,-0.1486,-0.1465,-0.1591,-0.1648,-0.1364,-0.1296,-0.1151,-0.1268,-0.1095,-0.1617,-0.1611,-0.1642,-0.173,-0.1676,0,0,0,0,0]},{"header":{"parameterUnit":"m.s-1","parameterCategory":2,"la1":30.2991,"la2":30.254,"lo1":-89.0895,"lo2":-89.0444,"dy":0.0017,"dx":0.0017,"nx":28,"ny":28,"refTime":"2023-08-29T09:00:00:Z","depth":"2","parameterNumber":3,"parameterNumberName":"V-component_of_CURRENTS"},"data":[0,0,0,0,0,0,0,0,0,0,0,0,0,0,0,0,0,0,0,0,0,0,0,0,0,0,0,0,0,0,0,0,0,0,0,0,0,0,0,0,0,0,0,0,0,0,0,0,0,0,0,0,0,0,0,0,0,0,-0.0128,-0.0127,0,-0.0058,-0.0057,-0.0056,0.0005,0.0005,0.0006,0.0006,0.0124,0.0126,0.0129,0,0,0,0,0,0,0,0,0,0,0,0,0,-0.0175,-0.0175,-0.0128,-0.0127,-0.0127,-0.0058,-0.0057,-0.0056,0.0005,0.0005,0.0006,0.0007,0.0123,0.0126,0.0129,0,0,0,0,0,0,0,0,0,0,0,0,0,-0.0133,-0.0174,-0.0128,-0.0089,-0.0085,-0.0058,-0.0057,-0.0055,0.0005,0.0005,0.0006,0.0007,0.0122,0.0126,0.013,0.0138,0,0,0.0142,0.0143,0,0,0,0,0,0,0,0,-0.0136,-0.0131,-0.0096,-0.0092,-0.0087,-0.0036,-0.003,0.0011,0.0004,-0.0028,0.0006,0.0007,0.0073,0.0081,0.0094,0.0143,0.0148,0.0142,0.0144,0.0146,0.0147,0,0,0,0,0,0,0,-0.0139,-0.0134,-0.0099,-0.0095,-0.009,-0.0064,-0.0057,-0.0022,0.0019,-0.0025,-0.0021,-0.0016,0.0076,0.009,0.0098,0.015,0.0142,0.0145,0.0148,0.0149,0.0247,0.0247,0,0,0,0,0,0,-0.0154,-0.0137,-0.0101,-0.0097,-0.0112,-0.0064,-0.0056,-0.0052,0.0018,0.0029,-0.0017,-0.0013,0.0083,0.0093,0.0102,0.0123,0.0146,0.015,0.0152,0.0246,0.0247,0.0247,0,0,0,0,0,0,-0.0155,-0.0151,-0.0104,-0.0116,-0.0109,-0.0064,-0.006,-0.0051,-0.0038,0.0024,0.0036,-0.0013,0.0084,0.0096,0.013,0.0127,0.0152,0.0155,0.0246,0.0246,0.0247,0.016,0,0,0,0,0,0,-0.0157,-0.0152,-0.0158,-0.0118,-0.0109,-0.01,-0.006,-0.005,-0.0037,-0.0031,0.0031,0.0043,0.0086,0.0124,0.0134,0.0133,0.0158,0.0246,0.0246,0.0247,0.0162,0.0157,0.0152,0,0,0,0,0,-0.0158,-0.0177,-0.0159,-0.0155,-0.0118,-0.0101,-0.0094,-0.0058,-0.0038,-0.0041,0.0007,0.0041,0.0134,0.0126,0.0139,0.0139,0.0246,0.0246,0.0247,0.0164,0.0158,0.0153,0,0,0,0,0,0,-0.0205,-0.0171,-0.0151,-0.0159,-0.0136,-0.0092,-0.0095,-0.0067,-0.0033,-0.0026,0.0037,0.0051,0.0082,0.0123,0.0113,0.0171,0.0199,0.0201,0.0132,0.0127,0.0122,0.0111,0.0161,0,0,0,0,0,-0.0219,-0.022,-0.0183,-0.019,-0.0182,-0.0139,-0.0128,-0.0103,-0.0067,-0.0051,-0.0005,0.0048,0.0093,0.0118,0.016,0.0185,0.0228,0.0198,0.0193,0.0188,0.0189,0.0242,0.0241,0.0248,0.0248,0.0248,0,0,-0.0238,-0.0221,-0.0221,-0.02,-0.0178,-0.0176,-0.013,-0.0123,-0.0113,-0.0044,-0.0021,0.0027,0.0096,0.0126,0.0145,0.016,0.0208,0.0189,0.0184,0.0188,0.0242,0.0241,0.024,0.0249,0.0249,0.0249,0,0,-0.0286,-0.0265,-0.0282,-0.0267,-0.0243,-0.0213,-0.0215,-0.0174,-0.0149,-0.0123,-0.0065,-0.002,0.0041,0.0093,0.0127,0.0122,0.0178,0.0138,0.0107,0.0156,0.0156,0.0156,0.0202,0.0207,0.0139,0.0139,0.0139,0,-0.0312,-0.0324,-0.0287,-0.0299,-0.029,-0.0234,-0.0248,-0.0217,-0.0169,-0.0146,-0.0128,-0.0022,0.0028,0.0084,0.0084,0.011,0.0146,0.0118,0.0148,0.0149,0.0151,0.0198,0.0205,0.0135,0.0135,0.0135,0.0136,0,-0.0366,-0.0375,-0.0387,-0.0376,-0.0363,-0.0368,-0.0318,-0.0299,-0.0259,-0.0217,-0.0161,-0.0089,-0.0023,0.0001,0.0041,0.0083,0.0107,0.0129,0.0155,0.0144,0.0196,0.0204,0.0129,0.013,0.0131,0.0132,0,0,-0.042,-0.0425,-0.0427,-0.0436,-0.0402,-0.0398,-0.038,-0.0341,-0.0323,-0.0265,-0.0233,-0.015,-0.0102,-0.0058,0.0002,0.0049,0.0087,0.0087,0.0092,0.012,0.0195,0.0235,0.0249,0.011,0.0111,0.0112,0.0223,0,-0.0471,-0.0516,-0.0495,-0.0524,-0.0539,-0.0482,-0.0468,-0.0422,-0.0368,-0.0323,-0.0232,-0.018,-0.0125,-0.0095,-0.004,0.0061,0.0106,0.0055,0.0214,0.0219,0.0246,0.0259,0.0224,0.0323,0.0231,0.0233,0.0234,0,-0.0526,-0.0547,-0.059,-0.0593,-0.0592,-0.0597,-0.0554,-0.0534,-0.0449,-0.0405,-0.033,-0.0254,-0.0162,-0.0125,0.0036,0.0,0.0087,0.0161,0.0167,0.0243,0.0276,0.0324,0.0342,0.0249,0.0247,0.0246,0.0245,0,-0.0579,-0.061,-0.0647,-0.0648,-0.064,-0.0643,-0.063,-0.0562,-0.0542,-0.0455,-0.0425,-0.0302,-0.024,-0.0115,0.0048,0.0041,0.0222,0.0233,0.0352,0.0356,0.0379,0.0383,0.0334,0.0334,0.0334,0.0333,0.0333,0,-0.0638,-0.0667,-0.068,-0.0702,-0.074,-0.0703,-0.0714,-0.0679,-0.062,-0.0595,-0.0475,-0.0421,-0.0236,-0.0104,0.0035,0.0229,0.0217,0.0355,0.0391,0.0348,0.0348,0.0327,0.0325,0.0338,0.0337,0.0336,0.0335,0,-0.0691,-0.0699,-0.0748,-0.0762,-0.0772,-0.0796,-0.0793,-0.0789,-0.0724,-0.0688,-0.0664,-0.0506,-0.0322,-0.0128,0.0089,0.0213,0.039,0.0455,0.0394,0.0421,0.049,0.0482,0.0599,0.0601,0.0603,0.0605,0.0607,0,-0.0725,-0.0755,-0.0804,-0.0839,-0.0855,-0.0881,-0.0896,-0.0852,-0.084,-0.0732,-0.0718,-0.0539,-0.0392,-0.0047,0.0199,0.0458,0.0451,0.0566,0.055,0.0496,0.052,0.0508,0.0498,0.0544,0.0545,0.0546,0.0546,0,-0.0784,-0.0798,-0.0839,-0.0916,-0.0956,-0.0989,-0.1006,-0.1012,-0.0941,-0.0886,-0.0771,-0.0646,-0.0308,-0.0012,0.0322,0.0461,0.0525,0.0589,0.0561,0.0481,0.0453,0.0473,0.0463,0.0552,0.0552,0.0551,0.0551,0.0551,-0.082,-0.0868,-0.0923,-0.099,-0.1038,-0.1079,-0.1095,-0.1081,-0.105,-0.0941,-0.0816,-0.0596,-0.0308,0.0176,0.0414,0.0624,0.0615,0.0664,0.0658,0.0653,0.0625,0.0602,0.0724,0.0725,0.0725,0.0725,0.0725,0,-0.0865,-0.0918,-0.0991,-0.1067,-0.1119,-0.1128,-0.1149,-0.1127,-0.1078,-0.0943,-0.0794,-0.047,-0.0127,0.0163,0.0511,0.0721,0.0688,0.0741,0.0661,0.0654,0.0648,0.0617,0.0716,0.0717,0.0717,0.0718,0,0,-0.0892,-0.0971,-0.1011,-0.111,-0.1158,-0.1195,-0.1198,-0.1147,-0.1044,-0.0901,-0.0731,-0.0478,-0.0117,0.0134,0.0394,0.057,0.0553,0.0575,0.056,0.0428,0.042,0.0581,0.0523,0,0,0,0,0]}],[{"header":{"parameterUnit":"m.s-1","parameterCategory":2,"la1":30.2991,"la2":30.254,"lo1":-89.0895,"lo2":-89.0444,"dy":0.0017,"dx":0.0017,"nx":28,"ny":28,"refTime":"2023-08-29T09:00:00:Z","depth":"4","parameterNumber":2,"parameterNumberName":"U-component_of_CURRENTS"},"data":[0,0,0,0,0,0,0,0,0,0,0,0,0,0,0,0,0,0,0,0,0,0,0,0,0,0,0,0,0,0,0,0,0,0,0,0,0,0,0,0,0,0,0,0,0,0,0,0,0,0,0,0,0,0,0,0,0,0,-0.1761,-0.1762,0,-0.1839,-0.1839,-0.184,-0.187,-0.187,-0.187,-0.187,-0.1877,-0.1877,-0.1877,0,0,0,0,0,0,0,0,0,0,0,0,0,-0.1633,-0.1635,-0.1761,-0.1762,-0.1764,-0.1839,-0.1839,-0.184,-0.187,-0.187,-0.187,-0.187,-0.1877,-0.1877,-0.1877,0,0,0,0,0,0,0,0,0,0,0,0,0,-0.1694,-0.1636,-0.1761,-0.179,-0.1794,-0.1838,-0.1839,-0.184,-0.187,-0.187,-0.187,-0.187,-0.1877,-0.1877,-0.1877,-0.1874,0,0,-0.1877,-0.1877,0,0,0,0,0,0,0,0,-0.1691,-0.1698,-0.1785,-0.1788,-0.1793,-0.1848,-0.1797,-0.1849,-0.1869,-0.1837,-0.187,-0.187,-0.1863,-0.1864,-0.1874,-0.1874,-0.1875,-0.1877,-0.1877,-0.1877,-0.1877,0,0,0,0,0,0,0,-0.1686,-0.1695,-0.1788,-0.1786,-0.1791,-0.1798,-0.1807,-0.1807,-0.1844,-0.184,-0.1843,-0.1858,-0.1864,-0.1874,-0.1874,-0.1875,-0.1877,-0.1877,-0.1877,-0.1878,-0.1939,-0.194,0,0,0,0,0,0,-0.1685,-0.1691,-0.1785,-0.1791,-0.1745,-0.1801,-0.181,-0.1827,-0.1845,-0.185,-0.1857,-0.1859,-0.1874,-0.1874,-0.1875,-0.1919,-0.1877,-0.1878,-0.1878,-0.1937,-0.1939,-0.1941,0,0,0,0,0,0,-0.1682,-0.1693,-0.1782,-0.1745,-0.1758,-0.1803,-0.1822,-0.1828,-0.1867,-0.186,-0.1863,-0.1893,-0.1874,-0.1874,-0.1893,-0.1917,-0.1878,-0.1878,-0.1935,-0.1938,-0.194,-0.1977,0,0,0,0,0,0,-0.1678,-0.1691,-0.1714,-0.1745,-0.176,-0.1829,-0.1822,-0.183,-0.1876,-0.1879,-0.1891,-0.189,-0.1874,-0.1893,-0.1893,-0.1917,-0.1878,-0.1933,-0.1936,-0.1939,-0.1974,-0.198,-0.1986,0,0,0,0,0,-0.1673,-0.17,-0.1714,-0.1727,-0.1786,-0.1831,-0.1839,-0.1868,-0.1878,-0.1902,-0.1904,-0.1891,-0.1912,-0.1894,-0.1894,-0.1918,-0.1932,-0.1935,-0.1939,-0.1971,-0.1979,-0.1986,0,0,0,0,0,0,-0.1656,-0.1707,-0.1723,-0.1765,-0.1806,-0.1838,-0.1869,-0.1888,-0.1911,-0.1919,-0.1904,-0.1904,-0.1928,-0.1924,-0.1905,-0.1948,-0.1923,-0.1927,-0.1948,-0.1955,-0.1961,-0.1978,-0.1878,0,0,0,0,0,-0.1664,-0.1699,-0.1745,-0.178,-0.1805,-0.1843,-0.187,-0.1894,-0.1916,-0.1929,-0.1934,-0.194,-0.1939,-0.1949,-0.1948,-0.1972,-0.1964,-0.1992,-0.1998,-0.2003,-0.2019,-0.2018,-0.2025,-0.1952,-0.1952,-0.1952,0,0,-0.1669,-0.1701,-0.1722,-0.178,-0.1814,-0.1852,-0.186,-0.1914,-0.1944,-0.1923,-0.1964,-0.1959,-0.195,-0.197,-0.1982,-0.1973,-0.202,-0.2008,-0.2012,-0.2025,-0.2023,-0.2029,-0.2036,-0.1955,-0.1954,-0.1954,0,0,-0.1682,-0.1726,-0.1756,-0.1796,-0.1859,-0.1882,-0.1906,-0.1956,-0.1981,-0.2016,-0.2004,-0.2019,-0.2029,-0.2026,-0.2023,-0.2068,-0.2047,-0.2075,-0.2123,-0.2121,-0.2127,-0.2132,-0.2126,-0.213,-0.2083,-0.2083,-0.2083,0,-0.1687,-0.1729,-0.1773,-0.1812,-0.1848,-0.1898,-0.1936,-0.1971,-0.2019,-0.2037,-0.2037,-0.2061,-0.2054,-0.207,-0.2089,-0.208,-0.2076,-0.2089,-0.2128,-0.2132,-0.2137,-0.213,-0.2134,-0.2085,-0.2085,-0.2085,-0.2085,0,-0.1713,-0.1761,-0.1786,-0.1847,-0.189,-0.1938,-0.1991,-0.2035,-0.2068,-0.2091,-0.213,-0.2125,-0.2138,-0.2142,-0.2128,-0.2163,-0.2148,-0.2127,-0.2104,-0.2146,-0.2136,-0.214,-0.2088,-0.2088,-0.2087,-0.2086,0,0,-0.1682,-0.1784,-0.1795,-0.1831,-0.1916,-0.1951,-0.2012,-0.207,-0.2108,-0.2153,-0.2188,-0.2203,-0.2213,-0.2212,-0.2204,-0.2216,-0.2238,-0.2197,-0.2196,-0.2183,-0.2237,-0.2086,-0.2075,-0.2221,-0.2222,-0.2223,-0.2216,0,-0.1689,-0.1759,-0.181,-0.188,-0.192,-0.199,-0.2038,-0.2099,-0.2145,-0.2192,-0.2214,-0.224,-0.2236,-0.2245,-0.2259,-0.2241,-0.2251,-0.2242,-0.2207,-0.2206,-0.2059,-0.2075,-0.2226,-0.2219,-0.2219,-0.222,-0.222,0,-0.1688,-0.1737,-0.1805,-0.1898,-0.1924,-0.1975,-0.2062,-0.2112,-0.2189,-0.2223,-0.2267,-0.2283,-0.2318,-0.2301,-0.231,-0.2306,-0.2286,-0.2271,-0.227,-0.212,-0.2061,-0.2171,-0.2226,-0.2225,-0.2225,-0.2225,-0.2224,0,-0.1628,-0.173,-0.1784,-0.1819,-0.193,-0.1977,-0.2034,-0.2121,-0.2163,-0.2245,-0.2277,-0.2322,-0.2339,-0.2338,-0.2319,-0.2319,-0.2315,-0.2297,-0.2145,-0.2135,-0.2257,-0.2252,-0.2303,-0.2303,-0.2303,-0.2303,-0.2303,0,-0.1598,-0.1646,-0.1768,-0.1798,-0.1861,-0.1952,-0.2021,-0.2085,-0.2173,-0.2209,-0.2288,-0.2307,-0.2351,-0.2353,-0.2333,-0.2241,-0.232,-0.2156,-0.2121,-0.2273,-0.227,-0.2259,-0.2254,-0.2303,-0.2303,-0.2303,-0.2303,0,-0.1523,-0.1607,-0.1676,-0.1799,-0.1837,-0.1884,-0.2004,-0.2047,-0.2144,-0.2193,-0.2219,-0.2302,-0.2294,-0.2315,-0.2302,-0.2229,-0.2173,-0.2121,-0.2288,-0.2262,-0.1996,-0.1994,-0.195,-0.1945,-0.194,-0.1936,-0.1933,0,-0.1489,-0.1519,-0.1654,-0.1694,-0.1756,-0.184,-0.1891,-0.2011,-0.2047,-0.2162,-0.2163,-0.2211,-0.2241,-0.2104,-0.2145,-0.2086,-0.206,-0.2023,-0.2012,-0.1989,-0.196,-0.1965,-0.1968,-0.1926,-0.1925,-0.1923,-0.1922,0,-0.1413,-0.1479,-0.1533,-0.1611,-0.1679,-0.1738,-0.1817,-0.183,-0.1949,-0.2063,-0.2042,-0.2029,-0.2017,-0.1997,-0.1961,-0.1923,-0.2043,-0.1975,-0.1984,-0.1973,-0.1959,-0.1936,-0.1945,-0.1906,-0.1908,-0.191,-0.1911,0,-0.1355,-0.1375,-0.1451,-0.1503,-0.1584,-0.1599,-0.1663,-0.1696,-0.1743,-0.1874,-0.1859,-0.1913,-0.1992,-0.1911,-0.188,-0.1825,-0.1799,-0.1738,-0.176,-0.1778,-0.1722,-0.1678,-0.1506,0,0,0,0,0,-0.1284,-0.1288,-0.1332,-0.138,-0.1454,-0.1488,-0.1592,-0.166,-0.1779,-0.1713,-0.1779,-0.1757,-0.1713,-0.1747,-0.1651,-0.1799,-0.1806,-0.168,-0.1749,-0.1817,-0.1836,-0.1784,0,0,0,0,0,0,-0.1235,-0.1275,-0.1284,-0.1253,-0.1259,-0.1314,-0.1372,-0.1459,-0.1431,-0.1561,-0.1544,-0.164,-0.1622,-0.1729,-0.1609,-0.1617,-0.1622,-0.1723,-0.1718,-0.1807,-0.1824,-0.1839,-0.1792,0,0,0,0,0]},{"header":{"parameterUnit":"m.s-1","parameterCategory":2,"la1":30.2991,"la2":30.254,"lo1":-89.0895,"lo2":-89.0444,"dy":0.0017,"dx":0.0017,"nx":28,"ny":28,"refTime":"2023-08-29T09:00:00:Z","depth":"4","parameterNumber":3,"parameterNumberName":"V-component_of_CURRENTS"},"data":[0,0,0,0,0,0,0,0,0,0,0,0,0,0,0,0,0,0,0,0,0,0,0,0,0,0,0,0,0,0,0,0,0,0,0,0,0,0,0,0,0,0,0,0,0,0,0,0,0,0,0,0,0,0,0,0,0,0,-0.0106,-0.0106,0,-0.0067,-0.0066,-0.0065,-0.002,-0.0019,-0.0018,-0.0018,0.0039,0.004,0.0041,0,0,0,0,0,0,0,0,0,0,0,0,0,-0.0126,-0.0126,-0.0107,-0.0106,-0.0106,-0.0067,-0.0066,-0.0065,-0.002,-0.0019,-0.0018,-0.0018,0.0039,0.004,0.0041,0,0,0,0,0,0,0,0,0,0,0,0,0,-0.0104,-0.0126,-0.0107,-0.0079,-0.0076,-0.0067,-0.0066,-0.0065,-0.002,-0.0019,-0.0018,-0.0017,0.0038,0.004,0.0041,0.0032,0,0,0.0045,0.0046,0,0,0,0,0,0,0,0,-0.0106,-0.0104,-0.0083,-0.0081,-0.0078,-0.0048,-0.0052,-0.0032,-0.002,-0.004,-0.0018,-0.0017,0.001,0.0014,0.002,0.0034,0.0037,0.0046,0.0046,0.0047,0.0047,0,0,0,0,0,0,0,-0.0107,-0.0105,-0.009,-0.0083,-0.008,-0.0063,-0.0058,-0.0048,-0.002,-0.0038,-0.0035,-0.0033,0.0012,0.0019,0.0022,0.0038,0.0045,0.0047,0.0048,0.0048,0.0054,0.0053,0,0,0,0,0,0,-0.0116,-0.0107,-0.0091,-0.0089,-0.0091,-0.0063,-0.0058,-0.0058,-0.002,-0.0014,-0.0033,-0.0031,0.0016,0.002,0.0024,0.0022,0.0047,0.0048,0.0049,0.0054,0.0053,0.0053,0,0,0,0,0,0,-0.0116,-0.0115,-0.0093,-0.0097,-0.0093,-0.0064,-0.0063,-0.0057,-0.0049,-0.0016,-0.0009,-0.0031,0.0017,0.0022,0.0029,0.0024,0.0049,0.005,0.0055,0.0054,0.0053,0.0012,0,0,0,0,0,0,-0.0117,-0.0116,-0.0123,-0.0098,-0.0093,-0.0096,-0.0064,-0.0057,-0.005,-0.0045,-0.0013,-0.0006,0.0018,0.0026,0.003,0.0026,0.0051,0.0056,0.0055,0.0053,0.0014,0.001,0.0006,0,0,0,0,0,-0.0118,-0.0135,-0.0123,-0.0122,-0.0103,-0.0097,-0.0094,-0.0069,-0.0051,-0.0056,-0.0032,-0.0007,0.0021,0.0026,0.0031,0.0028,0.0057,0.0055,0.0053,0.0016,0.0011,0.0006,0,0,0,0,0,0,-0.015,-0.0131,-0.0118,-0.0129,-0.0117,-0.009,-0.0095,-0.0075,-0.006,-0.0055,-0.0019,-0.0012,-0.0012,0.001,0.0016,0.0024,0.0043,0.0043,0.0014,0.0009,0.0004,0.0016,0.0053,0,0,0,0,0,-0.0161,-0.0166,-0.0145,-0.0154,-0.015,-0.0123,-0.0119,-0.0101,-0.0082,-0.0074,-0.0051,-0.0028,-0.0016,-0.0002,0.0006,0.0014,0.0055,0.0015,0.001,0.0007,0.0018,0.0077,0.008,0.0047,0.0047,0.0047,0,0,-0.0175,-0.0167,-0.017,-0.0161,-0.0149,-0.0152,-0.0118,-0.0116,-0.0113,-0.0072,-0.0067,-0.0051,-0.0023,-0.0018,-0.0014,0.0005,0.0034,0.0005,0.0001,0.0015,0.0076,0.008,0.0083,0.0046,0.0046,0.0047,0,0,-0.0211,-0.0201,-0.0217,-0.0211,-0.0198,-0.018,-0.0182,-0.0159,-0.0143,-0.014,-0.011,-0.0089,-0.0077,-0.0044,-0.0028,-0.005,-0.0001,-0.0057,-0.0054,0.0003,0.0007,0.0011,0.0055,0.0063,-0.0045,-0.0045,-0.0046,0,-0.0231,-0.0244,-0.0223,-0.0235,-0.0232,-0.0195,-0.0208,-0.019,-0.0168,-0.0151,-0.0147,-0.0104,-0.0083,-0.005,-0.0058,-0.0056,-0.0022,-0.0036,-0.0,0.0004,0.0009,0.0054,0.0064,-0.0048,-0.0047,-0.0047,-0.0047,0,-0.0272,-0.0284,-0.0295,-0.0293,-0.0288,-0.0295,-0.0265,-0.0256,-0.0234,-0.0205,-0.0178,-0.0143,-0.0108,-0.0104,-0.0087,-0.0046,-0.0034,-0.0022,0.0016,0.0011,0.0057,0.0068,-0.0051,-0.005,-0.0049,-0.0049,0,0,-0.0309,-0.0322,-0.0325,-0.0334,-0.0318,-0.0318,-0.031,-0.0285,-0.0271,-0.0238,-0.0211,-0.0177,-0.0141,-0.012,-0.0089,-0.0034,0.002,-0.0015,-0.0011,0.0035,0.0139,0.0113,0.0123,0.0039,0.0041,0.0042,0.0153,0,-0.0346,-0.0384,-0.0375,-0.0403,-0.0415,-0.038,-0.0375,-0.0344,-0.0309,-0.0277,-0.0209,-0.0184,-0.0151,-0.0136,-0.0074,-0.001,0.0049,-0.0011,0.0132,0.0136,0.0121,0.0135,0.0048,0.0161,0.0164,0.0166,0.0167,0,-0.0385,-0.0404,-0.0442,-0.0451,-0.0452,-0.0463,-0.0435,-0.0426,-0.0361,-0.0331,-0.0268,-0.0218,-0.0136,-0.0116,0.0031,-0.0011,0.0062,0.0121,0.0127,0.013,0.0132,0.0172,0.0188,0.0186,0.0185,0.0183,0.0182,0,-0.0416,-0.0448,-0.048,-0.0484,-0.0488,-0.0497,-0.0494,-0.0445,-0.0433,-0.0362,-0.034,-0.023,-0.0183,-0.0066,0.0054,0.0045,0.0213,0.0218,0.0272,0.027,0.028,0.0275,0.0331,0.0331,0.0331,0.033,0.033,0,-0.0451,-0.0479,-0.0504,-0.0523,-0.056,-0.054,-0.0554,-0.0532,-0.0488,-0.0467,-0.0373,-0.0328,-0.0168,-0.0056,0.0056,0.0197,0.0223,0.0282,0.0303,0.0256,0.0247,0.0287,0.028,0.0334,0.0334,0.0333,0.0332,0,-0.0479,-0.0496,-0.0541,-0.0566,-0.0582,-0.0606,-0.0619,-0.0616,-0.0571,-0.054,-0.0522,-0.0393,-0.0246,-0.0085,0.0106,0.0188,0.0328,0.0371,0.0305,0.0319,0.0348,0.0338,0.0448,0.0448,0.0449,0.0449,0.0449,0,-0.0497,-0.0523,-0.0583,-0.0619,-0.0641,-0.0674,-0.0693,-0.0667,-0.0657,-0.0577,-0.0562,-0.0423,-0.0321,-0.006,0.0099,0.0323,0.0347,0.0416,0.0392,0.0354,0.0364,0.0353,0.0343,0.0449,0.0449,0.0449,0.0449,0,-0.0528,-0.0554,-0.0591,-0.067,-0.0715,-0.0749,-0.0773,-0.077,-0.0721,-0.0686,-0.0577,-0.0434,-0.0269,-0.0067,0.0105,0.0262,0.037,0.0418,0.0419,0.0397,0.0356,0.0363,0.0353,0.045,0.045,0.045,0.0449,0,-0.0551,-0.059,-0.0648,-0.071,-0.0771,-0.0805,-0.081,-0.0783,-0.0762,-0.0665,-0.0631,-0.0442,-0.0327,-0.0098,0.006,0.0212,0.0247,0.0287,0.0295,0.0296,0.0211,0.0135,0.019,0,0,0,0,0,-0.0568,-0.0616,-0.0682,-0.075,-0.0807,-0.0838,-0.0853,-0.0838,-0.0791,-0.0721,-0.0671,-0.0512,-0.0261,-0.0149,0.0,0.0049,0.0259,0.0226,0.0305,0.0452,0.0452,0.0375,0,0,0,0,0,0,-0.0584,-0.0651,-0.0685,-0.0764,-0.0813,-0.0867,-0.0874,-0.0843,-0.0788,-0.0724,-0.0585,-0.0498,-0.0252,-0.035,-0.0005,0.0042,0.0107,0.035,0.0353,0.0452,0.0452,0.0452,0.0372,0,0,0,0,0]}]]